Flag for Germany Weather past 2 weeks in Crailsheim, Baden-Württemberg, Germany

Now
81 °F

Passing clouds.


Feels Like: 82 °F
Forecast: 67 / 81 °F
Wind: 2 mph from North

Location: Niederstetten

Current Time: Jul 5, 2015 at 9:11:05 AM

Latest Report: Jul 5, 2015 at 8:20 AM


Visibility: N/A

Pressure: 30.12 "Hg

Humidity: 54%

Dew point: 63 °F

Location of CrailsheimLocation

Historic Weather in Crailsheim — Graph

°F

Crailsheim temperature yesterday

Maximum temperature yesterday: 95 °F (at 5:20 PM)
Minimum temperature yesterday: 72 °F (at 4:20 AM)
Average temperature yesterday: 84 °F

Past Weeks' High & Low Weather Summary

 TemperatureHumidityPressure
High95 °F (Jul 4, 5:20 PM)100% (Jun 22, 6:20 AM)30.27 "Hg (Jun 22, 6:20 AM)
Low46 °F (Jun 23, 6:20 AM)23% (Jun 30, 6:20 PM)29.71 "Hg (Jun 23, 12:20 AM)
Average66 °F64%30.12 "Hg
* Reported Jun 20 7:20 AM — Jul 5 7:20 AM, Crailsheim, Weather by CustomWeather, © 2015

Note: Actual official high and low records may vary slightly from our data, if they occured in-between our weather recording intervals... More about our weather records

Advertising

Crailsheim weather history for previous 24 hours

 ConditionsComfort  
Time TempWeatherWind HumidityBarometerVisibility
7:20 AM
Sun, Jul 5
72 °FPassing clouds.3 mph69%30.09 "HgN/A
6:20 AM70 °FScattered clouds.2 mph69%30.09 "HgN/A
5:20 AM72 °FPassing clouds.6 mph61%30.09 "HgN/A
4:20 AM70 °FPassing clouds.5 mph69%30.12 "HgN/A
3:20 AM72 °FPassing clouds.5 mph65%30.12 "HgN/A
2:20 AM73 °FPassing clouds.2 mph61%30.12 "HgN/A
1:20 AM73 °FPassing clouds.5 mph65%30.15 "HgN/A
12:20 AM75 °FPassing clouds.2 mph61%30.12 "HgN/A
11:20 PM
Sat, Jul 4
79 °FPassing clouds.2 mph54%30.15 "HgN/A
10:20 PM84 °FPassing clouds.3 mph43%30.15 "HgN/A
9:20 PM86 °FScattered clouds.5 mph43%30.15 "HgN/A
8:20 PM91 °FScattered clouds.6 mph32%30.15 "HgN/A
7:20 PM93 °FPartly sunny.7 mph30%30.15 "HgN/A
6:20 PM93 °FPartly sunny.8 mph32%30.12 "HgN/A
5:20 PM95 °FPartly sunny.8 mph30%30.15 "HgN/A
4:20 PM93 °FPartly sunny.9 mph30%30.15 "HgN/A
3:20 PM93 °FPartly sunny.8 mph32%30.15 "HgN/A
2:20 PM93 °FPartly sunny.7 mph34%30.15 "HgN/A
1:20 PM93 °FPartly sunny.9 mph32%30.18 "HgN/A
12:20 PM91 °FScattered clouds.8 mph36%30.18 "HgN/A
11:20 AM88 °FPassing clouds.12 mph40%30.18 "HgN/A
10:20 AM86 °FPassing clouds.13 mph46%30.21 "HgN/A
9:20 AM82 °FScattered clouds.12 mph55%30.21 "HgN/A
Weather by CustomWeather, © 2015

See weather overviewHow to use our weather pages